• In Deutschland
  • Länderverzeichnis
  • Für 7 Tage
  • Wassertemperatur
  • Satellitenkarten
  • Wetterkarte
  • Widgets
  • user-avatar
    Anmelden

    Stündliche Wetter Sidi Bu-l-Abbas

    Heute, 16 Januar, Dienstag

    Zeit Temperatur Niederschläge Wind Luftdruck Luftfeuchtigkeit
    00:00 +6°C° 0 mm 0 m/S 728 mmHg 91%
    01:00 +6°C° 0 mm 0 m/S 728 mmHg 91%
    02:00 +7°C° 0 mm 1 m/S 728 mmHg 91%
    03:00 +6°C° 0 mm 1 m/S 728 mmHg 90%
    04:00 +6°C° 0 mm 1 m/S 728 mmHg 89%
    05:00 +6°C° 0 mm 1 m/S 728 mmHg 88%
    06:00 +6°C° 0 mm 1 m/S 728 mmHg 87%
    07:00 +8°C° 0 mm 1 m/S 728 mmHg 80%
    08:00 +9°C° 0 mm 1 m/S 729 mmHg 73%
    09:00 +11°C° 0 mm 1 m/S 729 mmHg 66%
    10:00 +12°C° 0 mm 1 m/S 729 mmHg 59%
    11:00 +13°C° 0 mm 1 m/S 729 mmHg 53%
    12:00 +15°C° 0 mm 1 m/S 729 mmHg 47%
    13:00 +15°C° 0 mm 1 m/S 728 mmHg 45%
    14:00 +16°C° 0 mm 1 m/S 728 mmHg 43%
    15:00 +18°C° 0 mm 1 m/S 727 mmHg 41%
    16:00 +15°C° 0 mm 1 m/S 727 mmHg 48%
    17:00 +13°C° 0 mm 1 m/S 726 mmHg 56%
    18:00 +10°C° 0 mm 0 m/S 726 mmHg 64%
    19:00 +11°C° 0 mm 1 m/S 726 mmHg 62%
    20:00 +11°C° 0 mm 1 m/S 726 mmHg 61%
    21:00 +11°C° 0 mm 1 m/S 726 mmHg 60%
    22:00 +11°C° 0 mm 1 m/S 726 mmHg 58%
    23:00 +10°C° 0 mm 1 m/S 726 mmHg 56%

    Morgen, 17 Januar, Mittwoch

    Zeit Temperatur Niederschläge Wind Luftdruck Luftfeuchtigkeit
    00:00 +10°C° 0 mm 1 m/S 726 mmHg 55%
    01:00 +10°C° 0 mm 1 m/S 726 mmHg 54%
    02:00 +10°C° 0 mm 1 m/S 725 mmHg 54%
    03:00 +10°C° 0 mm 1 m/S 725 mmHg 53%
    04:00 +8°C° 0 mm 2 m/S 725 mmHg 52%
    05:00 +8°C° 0 mm 2 m/S 725 mmHg 52%
    06:00 +8°C° 0 mm 2 m/S 725 mmHg 51%
    07:00 +10°C° 0 mm 2 m/S 725 mmHg 47%
    08:00 +13°C° 0 mm 1 m/S 725 mmHg 44%
    09:00 +14°C° 0 mm 1 m/S 726 mmHg 40%
    10:00 +16°C° 0 mm 1 m/S 726 mmHg 35%
    11:00 +18°C° 0 mm 1 m/S 726 mmHg 31%
    12:00 +20°C° 0 mm 1 m/S 726 mmHg 26%
    13:00 +19°C° 0 mm 2 m/S 725 mmHg 27%
    14:00 +19°C° 0 mm 2 m/S 725 mmHg 27%
    15:00 +20°C° 0 mm 3 m/S 725 mmHg 28%
    16:00 +18°C° 0 mm 3 m/S 725 mmHg 34%
    17:00 +15°C° 0 mm 2 m/S 724 mmHg 40%
    18:00 +13°C° 0 mm 2 m/S 724 mmHg 46%
    19:00 +13°C° 0 mm 2 m/S 724 mmHg 47%
    20:00 +12°C° 0 mm 2 m/S 725 mmHg 49%
    21:00 +12°C° 0 mm 2 m/S 725 mmHg 50%
    22:00 +10°C° 0 mm 2 m/S 725 mmHg 51%
    23:00 +10°C° 0 mm 2 m/S 725 mmHg 51%

    übermorgen, 18 Januar, Donnerstag

    Zeit Temperatur Niederschläge Wind Luftdruck Luftfeuchtigkeit
    00:00 +10°C° 0 mm 2 m/S 724 mmHg 52%
    01:00 +9°C° 0 mm 2 m/S 724 mmHg 52%
    02:00 +9°C° 0 mm 2 m/S 724 mmHg 52%
    03:00 +9°C° 0 mm 2 m/S 724 mmHg 53%
    04:00 +9°C° 0 mm 2 m/S 724 mmHg 52%
    05:00 +9°C° 0 mm 2 m/S 724 mmHg 52%
    06:00 +8°C° 0 mm 2 m/S 724 mmHg 52%
    07:00 +10°C° 0 mm 2 m/S 724 mmHg 48%
    08:00 +13°C° 0 mm 2 m/S 724 mmHg 44%
    09:00 +14°C° 0 mm 2 m/S 725 mmHg 40%
    10:00 +16°C° 0 mm 2 m/S 724 mmHg 35%
    11:00 +18°C° 0 mm 3 m/S 724 mmHg 30%
    12:00 +19°C° 0 mm 3 m/S 724 mmHg 25%
    13:00 +20°C° 0 mm 3 m/S 724 mmHg 25%
    14:00 +20°C° 0 mm 3 m/S 723 mmHg 25%
    15:00 +21°C° 0 mm 3 m/S 722 mmHg 24%
    16:00 +18°C° 0 mm 3 m/S 722 mmHg 32%
    17:00 +16°C° 0 mm 3 m/S 722 mmHg 39%
    18:00 +14°C° 0 mm 2 m/S 721 mmHg 47%
    19:00 +14°C° 0 mm 2 m/S 721 mmHg 47%
    20:00 +13°C° 0 mm 2 m/S 721 mmHg 47%
    21:00 +13°C° 0 mm 2 m/S 722 mmHg 46%
    22:00 +13°C° 0 mm 2 m/S 721 mmHg 48%
    23:00 +12°C° 0 mm 2 m/S 721 mmHg 49%

    19 Januar, Freitag

    Zeit Temperatur Niederschläge Wind Luftdruck Luftfeuchtigkeit
    00:00 +12°C° 0 mm 2 m/S 720 mmHg 50%
    01:00 +10°C° 0 mm 2 m/S 720 mmHg 50%
    02:00 +10°C° 0 mm 2 m/S 720 mmHg 50%
    03:00 +10°C° 0 mm 2 m/S 719 mmHg 51%
    04:00 +9°C° 0 mm 2 m/S 719 mmHg 51%
    05:00 +9°C° 0 mm 2 m/S 719 mmHg 51%
    06:00 +9°C° 0 mm 2 m/S 718 mmHg 51%
    07:00 +11°C° 0 mm 1 m/S 719 mmHg 48%
    08:00 +12°C° 0 mm 1 m/S 719 mmHg 45%
    09:00 +13°C° 0 mm 1 m/S 719 mmHg 43%
    10:00 +14°C° 0 mm 2 m/S 719 mmHg 44%
    11:00 +14°C° 0 mm 2 m/S 719 mmHg 46%
    12:00 +14°C° 0 mm 3 m/S 719 mmHg 48%
    13:00 +14°C° 0 mm 4 m/S 718 mmHg 55%
    14:00 +13°C° 0 mm 5 m/S 718 mmHg 63%
    15:00 +13°C° 0 mm 6 m/S 718 mmHg 70%
    16:00 +11°C° 0,1 mm 6 m/S 718 mmHg 76%
    17:00 +10°C° 0,1 mm 6 m/S 719 mmHg 83%
    18:00 +10°C° 0,1 mm 6 m/S 719 mmHg 89%
    19:00 +10°C° 0 mm 5 m/S 719 mmHg 89%
    20:00 +10°C° 0 mm 4 m/S 720 mmHg 89%
    21:00 +10°C° 0 mm 4 m/S 720 mmHg 89%
    22:00 +10°C° 0 mm 4 m/S 721 mmHg 88%
    23:00 +10°C° 0 mm 4 m/S 721 mmHg 88%

    20 Januar, Samstag

    Zeit Temperatur Niederschläge Wind Luftdruck Luftfeuchtigkeit
    00:00 +8°C° 0 mm 4 m/S 721 mmHg 87%
    01:00 +8°C° 0 mm 5 m/S 721 mmHg 87%
    02:00 +8°C° 0 mm 5 m/S 721 mmHg 88%
    03:00 +8°C° 0 mm 5 m/S 721 mmHg 88%
    04:00 +8°C° 0 mm 5 m/S 721 mmHg 88%
    05:00 +8°C° 0 mm 5 m/S 721 mmHg 88%
    06:00 +8°C° 0 mm 4 m/S 721 mmHg 88%
    07:00 +9°C° 0,1 mm 5 m/S 722 mmHg 84%
    08:00 +10°C° 0,1 mm 6 m/S 723 mmHg 79%
    09:00 +10°C° 0,1 mm 7 m/S 723 mmHg 75%
    10:00 +10°C° 0,1 mm 7 m/S 724 mmHg 70%
    11:00 +11°C° 0,1 mm 8 m/S 724 mmHg 65%
    12:00 +11°C° 0,1 mm 8 m/S 724 mmHg 60%
    13:00 +11°C° 0 mm 7 m/S 724 mmHg 57%
    14:00 +11°C° 0 mm 6 m/S 724 mmHg 54%
    15:00 +12°C° 0 mm 5 m/S 724 mmHg 51%
    16:00 +11°C° 0 mm 4 m/S 724 mmHg 56%
    17:00 +10°C° 0 mm 3 m/S 725 mmHg 61%
    18:00 +9°C° 0 mm 2 m/S 725 mmHg 67%
    19:00 +8°C° 0 mm 3 m/S 725 mmHg 68%
    20:00 +8°C° 0 mm 3 m/S 726 mmHg 69%
    21:00 +8°C° 0 mm 3 m/S 726 mmHg 71%
    22:00 +7°C° 0 mm 4 m/S 726 mmHg 71%
    23:00 +7°C° 0 mm 4 m/S 726 mmHg 72%

    21 Januar, Sonntag

    Zeit Temperatur Niederschläge Wind Luftdruck Luftfeuchtigkeit
    00:00 +6°C° 0 mm 4 m/S 726 mmHg 72%
    01:00 +6°C° 0 mm 4 m/S 726 mmHg 70%
    02:00 +6°C° 0 mm 4 m/S 725 mmHg 69%
    03:00 +6°C° 0 mm 4 m/S 725 mmHg 67%
    04:00 +7°C° 0 mm 4 m/S 725 mmHg 66%
    05:00 +7°C° 0 mm 4 m/S 725 mmHg 65%
    06:00 +7°C° 0 mm 4 m/S 724 mmHg 64%
    07:00 +8°C° 0 mm 4 m/S 725 mmHg 59%
    08:00 +10°C° 0 mm 4 m/S 725 mmHg 54%
    09:00 +12°C° 0 mm 4 m/S 725 mmHg 50%
    10:00 +13°C° 0 mm 6 m/S 725 mmHg 48%
    11:00 +14°C° 0 mm 7 m/S 725 mmHg 45%
    12:00 +16°C° 0 mm 8 m/S 725 mmHg 43%
    13:00 +16°C° 0 mm 8 m/S 725 mmHg 44%
    14:00 +16°C° 0 mm 8 m/S 724 mmHg 45%
    15:00 +15°C° 0 mm 8 m/S 724 mmHg 46%
    16:00 +14°C° 0 mm 6 m/S 724 mmHg 53%
    17:00 +12°C° 0 mm 5 m/S 724 mmHg 60%
    18:00 +11°C° 0 mm 3 m/S 724 mmHg 67%
    19:00 +11°C° 0 mm 3 m/S 724 mmHg 69%
    20:00 +10°C° 0 mm 3 m/S 725 mmHg 70%
    21:00 +10°C° 0 mm 3 m/S 725 mmHg 71%
    22:00 +10°C° 0 mm 3 m/S 725 mmHg 70%
    23:00 +10°C° 0 mm 3 m/S 725 mmHg 69%
    Mehr zeigen